Regional Weather Roundup
Issued by NWS Columbia, SC

Home | Current Version | Previous Version | Text Only | Print | Product List | Glossary On
Versions: 1 2 3 4 5 6 7 8 9 10 11 12 13 14 15 16 17 18 19 20 21 22 23 24 25 26 27 28 29 30 31 32 33 34 35 36 37 38 39 40 41 42 43 44 45 46 47 48 49 50
000
ASUS42 KCAE 272010
RWRCAE
REGIONAL WEATHER ROUNDUP
NATIONAL WEATHER SERVICE COLUMBIA SC
400 PM EDT MON APR 27 2015

NOTE: "FAIR" INDICATES FEW OR NO CLOUDS BELOW 12,000 FEET WITH NO
SIGNIFICANT WEATHER AND/OR OBSTRUCTIONS TO VISIBILITY.

NOT ALL STATIONS ARE QUALITY CONTROLLED BY THE NATIONAL
WEATHER SERVICE. USE DATA WITH CAUTION...ESPECIALLY
DEWPOINT OBSERVATIONS.

SCZ001>056-GAZ040-063>065-077-272100-
...UPSTATE SOUTH CAROLINA...

CITY           SKY/WX    TMP DP  RH WIND       PRES   REMARKS
ANDERSON       SUNNY     70  40  33 W12       29.83F
LIBERTY        CLEAR     72  39  29 S5        29.83R
SPARTANBURG    SUNNY     72  30  21 W12       29.82S
CLEMSON        SUNNY     71  37  28 VRB7      29.84S
GREENVILLE     SUNNY     70  37  29 VRB3      29.83F
GREENWOOD      MOSUNNY   70  45  40 N6        29.84F
GREER          SUNNY     71  35  26 W6        29.82S
ROCK HILL      MOSUNNY   68  37  32 CALM      29.82F
CHESTER        PTCLDY    72  36  26 W5        29.84S
LAURENS        PTCLDY    70  52  52 NW5       29.83S


...CENTRAL SOUTH CAROLINA...

CITY           SKY/WX    TMP DP  RH WIND       PRES   REMARKS
COLUMBIA APT   PTSUNNY   72  43  35 NW8       29.81F
COLUMBIA OWENS MOSUNNY   72  43  35 VRB7      29.83S
DARLINGTON     SUNNY     72  37  28 NW13      29.81F
FLORENCE       MOSUNNY   71  40  32 N9        29.80F
MCENTIRE ANGB  PTSUNNY   72  44  36 W12       29.82S
ORANGEBURG     MOSUNNY   72  41  32 N7        29.82S
SUMTER SHAW    SUNNY     71  44  36 NW7       29.79F
NEWBERRY       PTCLDY    70  41  35 NW7       29.85F
AIKEN          FAIR      70  39  32 CALM      29.86F
BARNWELL       FAIR      75  46  35 N8        29.83F
MANNING        MOCLDY    70  32  24 N9G17     29.81F
CAMDEN         FAIR      70  41  35 NW13      29.82F
LANCASTER      CLEAR     70  39  32 W9        29.83S
WINNSBORO      PTCLDY    70  43  37 NW9       29.82F


...EASTERN AND COASTAL SOUTH CAROLINA...

CITY           SKY/WX    TMP DP  RH WIND       PRES   REMARKS
MYRTLE BEACH   MOSUNNY   72  41  33 N14       29.81S
N MYRTLE BCH   SUNNY     71  43  36 N13G18    29.79S
CONWAY         FAIR      70  43  37 N5        29.80S
MARION         MOCLDY    70  41  35 N8        29.81S
HARTSVILLE     FAIR      72  39  30 NW5       29.82S
FLORENCE       MOSUNNY   71  40  32 N9        29.80F
DARLINGTON     SUNNY     72  37  28 NW13      29.81F
CHARLESTON APT PTSUNNY   72  48  42 VRB6      29.82S
MOUNT PLEASANT FAIR      72  45  37 MISG      29.82S
WALTERBORO     MOCLDY    70  46  43 N7        29.83S
BEAUFORT       CLOUDY    73  48  41 N8        29.83S


...EASTERN GEORGIA...

CITY           SKY/WX    TMP DP  RH WIND       PRES   REMARKS
AUGUSTA BUSH F PTSUNNY   72  44  36 VRB5      29.82F
AUGUSTA DANIEL PTSUNNY   73  42  32 MISG      29.83F
THOMSON        PTSUNNY   74  51  44 W6        29.87F
WASHINGTON     FAIR      77  52  41 W3        29.83S
CLAXTON        FAIR      73  55  53 NW5       29.83F
SYLVANIA       CLOUDY    71  52  49 NW6       29.84F
STATESBORO       N/A     72  52  49 N7        29.84S
SAVANNAH       CLOUDY    73  50  44 NW6       29.83S


...SOUTHERN NORTH CAROLINA...

CITY           SKY/WX    TMP DP  RH WIND       PRES   REMARKS
CHARLOTTE      MOSUNNY   70  36  28 N9        29.83R
MONROE         MOSUNNY   70  39  32 W8        29.81R
WADESBORO      CLEAR     69  33  27 NW10      29.81S
ROCKINGHAM     CLEAR     69  37  31 N8G18     29.80S
RUTHERFORDTON  MOSUNNY   69  35  28 CALM      29.84S
ASHEVILLE      SUNNY     62  32  32 N14       29.88R

$$



USA.gov is the U.S. government's official web portal to all federal, state and local government web resources and services.